Regional Weather Roundup
Issued by NWS

Home | Current Version | Previous Version | Text Only | Print | Product List | Glossary Off
Versions: 1 2 3 4 5 6 7 8 9 10 11 12 13 14 15 16 17 18 19 20 21 22 23 24 25 26 27 28 29 30 31 32 33 34 35 36 37 38 39 40 41 42 43 44 45 46 47 48 49 50

079
ASUS43 KLOT 310103
RWRIL

ILLINOIS REGIONAL WEATHER ROUNDUP
NATIONAL WEATHER SERVICE CHICAGO/ROMEOVILLE IL
800 PM CDT THU MAR 30 2017

NOTE: "FAIR" INDICATES FEW OR NO CLOUDS BELOW 12,000 FEET WITH NO
SIGNIFICANT WEATHER AND/OR OBSTRUCTIONS TO VISIBILITY.

* THESE STATIONS ARE NOT UNDER NWS QUALITY CONTROL. THEY ALSO MAY NOT
  REPORT WEATHER SUCH AS PRECIPITATION OR FOG.

ILZ001-002-007-009-015-016-024-310200-
NORTHWEST ILLINOIS

CITY           SKY/WX    TMP DP  RH WIND       PRES   REMARKS
MOLINE         CLOUDY    43  40  89 NE12      29.60S FOG
STERLING*      CLOUDY    43  41  93 NE16G23   29.60F
SAVANNA*       CLOUDY    41  39  93 NE20      29.62S
$$

ILZ003-004-008-010-011-017-018-310200-
NORTH CENTRAL ILLINOIS

CITY           SKY/WX    TMP DP  RH WIND       PRES   REMARKS
ROCKFORD       CLOUDY    41  37  86 NE21G28   29.67R
FREEPORT*      CLOUDY    39  38  98 NE20G26   29.67R WCI  29
ROCHELLE*      CLOUDY    40  39  97 NE25G31   29.61F
DE KALB*       CLOUDY    40  39  98 NE22G29   29.60F FOG
PERU*          CLOUDY    42  41  95 NE22      29.58S
$$

ILZ005-006-012>014-019>023-310200-
NORTHEAST ILLINOIS

CITY           SKY/WX    TMP DP  RH WIND       PRES   REMARKS
CHICAGO-OHARE  LGT RAIN  41  39  93 NE15      29.62F FOG
CHICAGO-MIDWAY DRIZZLE   43  42  97 N17       29.61F FOG
AURORA         CLOUDY    43  40  89 NE20G28   29.59F FOG
LANSING*       LGT RAIN  44  44 100 N8        29.59F
JOLIET*        CLOUDY    46  45  97 NE13G20   29.57S FOG
WAUKEGAN       CLOUDY    38  38 100 NE13G24   29.67R WCI  30
DUPAGE AIRPORT LGT RAIN  41  41 100 NE21G28   29.59F FOG
WHEELING       CLOUDY    39  39 100 NE14G22   29.65F WCI  31
MORRIS*        CLOUDY    45  43  94 NE9G16    29.56R FOG
NORTHERLY ISL    N/A     40  38  93 MISG        N/A
$$

LMZ740>746-310200-
SOUTHERN LAKE MICHIGAN

STATION/POSITION SKY/WX   TEMP    WIND        PRES    VSBY  WAVE
                          AIR SEA DIR/SP/G                  HT/PER
                          (F)     (DEG/KT/KT) (MB)    (MI)  (FT/S)
HARRISON CRIB              40      20/ 19/ 20   N/A
BURNHAM HARBOR             40     350/  9/ 14   N/A
CALUMET HARBOR             40     340/ 10/ 13 1002.8R
BURNS HARBOR               47      80/ 10/ 13 1003.0S
MICHIGAN CITY              46      70/  7/  9   N/A
$$

ILZ025>027-034>036-040-047-049-050-058-095>099-310200-
WEST-CENTRAL ILLINOIS

CITY           SKY/WX    TMP DP  RH WIND       PRES   REMARKS
QUINCY         LGT RAIN  47  46  97 N12       29.60R
GALESBURG*     LGT RAIN  44  44 100 N12       29.58R
MACOMB*        LGT RAIN  45  45  99 N12       29.61R
JACKSONVILLE*  LGT RAIN  51  49  93 W13G21    29.58R
PITTSFIELD*    CLOUDY    51  50  95 W8        29.60R
$$

ILZ028>032-037-038-041>044-048-051>054-059>061-310200-
CENTRAL ILLINOIS

CITY           SKY/WX    TMP DP  RH WIND       PRES   REMARKS
PONTIAC        CLOUDY    49  49  99 N17       29.56R FOG
BLOOMINGTON    FOG       53  53 100 NW7       29.55R VSB 1
DECATUR        CLOUDY    57  57 100 SW10      29.56R
PEORIA         CLOUDY    49  49 100 NE9       29.55S FOG
LACON*         CLOUDY    46  45  99 NE8       29.57R
LINCOLN*       CLOUDY    57  56  96 S5        29.53S
SPRINGFIELD    CLOUDY    54  50  86 W18G26    29.55R
TAYLORVILLE    CLOUDY    55  52  90 W9        29.57R
$$

ILZ033-039-045-046-055>057-062-063-310200-
EAST-CENTRAL ILLINOIS

CITY           SKY/WX    TMP DP  RH WIND       PRES   REMARKS
CHAMPAIGN      LGT RAIN  56  54  93 SE16      29.55R
RANTOUL*       CLOUDY    57  56  96 SE12      29.54R
MATTOON        LGT RAIN  57  56  96 SE3       29.55F
PARIS*         CLOUDY    55  55  99 SE7       29.58S
$$

ILZ079-100>102-310200-
SOUTHWEST ILLINOIS

CITY           SKY/WX    TMP DP  RH WIND       PRES   REMARKS
ALTON          PTCLDY    54  45  71 W12G20    29.59R
BELLEVILLE     MOCLDY    56  46  69 W7        29.58R
CAHOKIA*       CLEAR     55  43  63 W12       29.60R
SPARTA*        CLOUDY    56  44  64 W12G18    29.61R
$$

ILZ064>066-069>071-074>076-080>082-084>086-088>090-092>094-310200-
SOUTH-CENTRAL ILLINOIS

CITY           SKY/WX    TMP DP  RH WIND       PRES   REMARKS
CARBONDALE     CLOUDY    60  47  61 W10       29.60R
CAIRO*         PTCLDY    56  45  65 W18G25    29.62S
EFFINGHAM*     CLOUDY    57  57  99 CALM      29.59R
MARION         MOCLDY    61  46  59 SW9G17    29.60R
MT. VERNON     LGT RAIN  58  55  90 W5        29.59R
CENTRALIA*     CLOUDY    57  54  89 W6        29.58R
SALEM*         CLOUDY    58  56  91 CALM      29.58S
$$

ILZ067-068-072-073-078-083-087-091-310200-
SOUTHEAST ILLINOIS

CITY           SKY/WX    TMP DP  RH WIND       PRES   REMARKS
LAWRENCEVILLE  PTCLDY    59  57  93 SW7       29.56R
FLORA*         CLOUDY    60  57  89 NW7       29.58R
FAIRFIELD*     MOCLDY    59  55  84 W6        29.56R
HARRISBURG*    CLEAR     62  47  58 SW15G23   29.58R
ROBINSON*      MOCLDY    57  56  96 SE8       29.57R
CARMI*         PTCLDY    60  54  78 SW7       29.57R
$$

ABBREVIATIONS USED IN REMARKS
   TC - TEMPERATURE IN CELSIUS
  WCI - WIND CHILL INDEX
   HX - HEAT INDEX
  VSB - VISIBILITY
$$





USA.gov is the U.S. government's official web portal to all federal, state and local government web resources and services.